• In United Kingdom
  • List of Countries
  • For 7 days
  • Water Temperature
  • Satellite Maps
  • Weather Map
  • Weather Widgets
  • user-avatar
    Login

    Hourly Weather Gjirokaster

    Today, 20 July, Friday

    Time Temperature Precipitation Wind Pressure Humidity
    00:00 +15°C° 0 mm 2 mps 651 mmHg 73%
    01:00 +14°C° 0 mm 2 mps 651 mmHg 74%
    02:00 +14°C° 0 mm 2 mps 650 mmHg 74%
    03:00 +14°C° 0 mm 2 mps 650 mmHg 75%
    04:00 +14°C° 0 mm 2 mps 650 mmHg 75%
    05:00 +16°C° 0 mm 2 mps 651 mmHg 70%
    06:00 +17°C° 0 mm 2 mps 651 mmHg 66%
    07:00 +19°C° 0 mm 2 mps 652 mmHg 61%
    08:00 +20°C° 0 mm 2 mps 652 mmHg 55%
    09:00 +23°C° 0 mm 2 mps 652 mmHg 48%
    10:00 +24°C° 0 mm 3 mps 653 mmHg 42%
    11:00 +25°C° 0 mm 3 mps 653 mmHg 41%
    12:00 +25°C° 0 mm 4 mps 653 mmHg 40%
    13:00 +26°C° 0 mm 4 mps 653 mmHg 39%
    14:00 +25°C° 0 mm 4 mps 653 mmHg 41%
    15:00 +25°C° 0 mm 4 mps 653 mmHg 44%
    16:00 +25°C° 0 mm 4 mps 652 mmHg 46%
    17:00 +22°C° 0 mm 4 mps 652 mmHg 53%
    18:00 +20°C° 0 mm 4 mps 652 mmHg 60%
    19:00 +18°C° 0 mm 3 mps 651 mmHg 67%
    20:00 +18°C° 0 mm 3 mps 651 mmHg 69%
    21:00 +17°C° 0 mm 3 mps 652 mmHg 71%
    22:00 +16°C° 0 mm 2 mps 652 mmHg 72%
    23:00 +16°C° 0 mm 2 mps 652 mmHg 73%

    Tomorrow, 21 July, Saturday

    Time Temperature Precipitation Wind Pressure Humidity
    00:00 +16°C° 0 mm 2 mps 652 mmHg 74%
    01:00 +15°C° 0 mm 2 mps 652 mmHg 75%
    02:00 +15°C° 0 mm 2 mps 651 mmHg 76%
    03:00 +15°C° 0 mm 2 mps 651 mmHg 77%
    04:00 +15°C° 0 mm 2 mps 651 mmHg 77%
    05:00 +16°C° 0 mm 2 mps 652 mmHg 72%
    06:00 +18°C° 0 mm 2 mps 652 mmHg 67%
    07:00 +21°C° 0 mm 1 mps 653 mmHg 62%
    08:00 +21°C° 0 mm 2 mps 653 mmHg 55%
    09:00 +24°C° 0 mm 2 mps 654 mmHg 48%
    10:00 +25°C° 0 mm 2 mps 654 mmHg 41%
    11:00 +26°C° 0 mm 3 mps 654 mmHg 39%
    12:00 +27°C° 0 mm 3 mps 654 mmHg 36%
    13:00 +27°C° 0 mm 4 mps 654 mmHg 34%
    14:00 +27°C° 0 mm 4 mps 654 mmHg 35%
    15:00 +27°C° 0 mm 4 mps 654 mmHg 36%
    16:00 +26°C° 0 mm 4 mps 654 mmHg 38%
    17:00 +24°C° 0 mm 3 mps 653 mmHg 44%
    18:00 +21°C° 0 mm 3 mps 653 mmHg 50%
    19:00 +19°C° 0 mm 2 mps 652 mmHg 56%
    20:00 +18°C° 0 mm 2 mps 652 mmHg 55%
    21:00 +18°C° 0 mm 2 mps 652 mmHg 55%
    22:00 +17°C° 0 mm 2 mps 652 mmHg 55%
    23:00 +18°C° 0 mm 1 mps 652 mmHg 52%

    Day after tomorrow, 22 July, Sunday

    Time Temperature Precipitation Wind Pressure Humidity
    00:00 +18°C° 0 mm 1 mps 652 mmHg 50%
    01:00 +16°C° 0 mm 1 mps 652 mmHg 47%
    02:00 +16°C° 0 mm 1 mps 652 mmHg 45%
    03:00 +16°C° 0 mm 1 mps 652 mmHg 43%
    04:00 +16°C° 0 mm 1 mps 652 mmHg 41%
    05:00 +18°C° 0 mm 2 mps 652 mmHg 40%
    06:00 +20°C° 0 mm 2 mps 652 mmHg 40%
    07:00 +23°C° 0 mm 2 mps 653 mmHg 40%
    08:00 +24°C° 0 mm 3 mps 653 mmHg 36%
    09:00 +26°C° 0 mm 3 mps 653 mmHg 33%
    10:00 +28°C° 0 mm 3 mps 653 mmHg 30%
    11:00 +28°C° 0 mm 4 mps 653 mmHg 30%
    12:00 +29°C° 0 mm 4 mps 653 mmHg 30%
    13:00 +29°C° 0 mm 4 mps 653 mmHg 29%
    14:00 +28°C° 0 mm 4 mps 653 mmHg 32%
    15:00 +28°C° 0 mm 4 mps 652 mmHg 34%
    16:00 +27°C° 0 mm 4 mps 652 mmHg 37%
    17:00 +25°C° 0 mm 4 mps 652 mmHg 43%
    18:00 +22°C° 0 mm 4 mps 651 mmHg 50%
    19:00 +20°C° 0 mm 4 mps 651 mmHg 57%
    20:00 +19°C° 0 mm 4 mps 651 mmHg 58%
    21:00 +19°C° 0 mm 3 mps 651 mmHg 59%
    22:00 +18°C° 0 mm 3 mps 651 mmHg 61%
    23:00 +17°C° 0 mm 3 mps 650 mmHg 60%

    23 July, Monday

    Time Temperature Precipitation Wind Pressure Humidity
    00:00 +17°C° 0 mm 3 mps 650 mmHg 60%
    01:00 +16°C° 0 mm 3 mps 650 mmHg 59%
    02:00 +16°C° 0 mm 3 mps 650 mmHg 59%
    03:00 +16°C° 0 mm 3 mps 649 mmHg 60%
    04:00 +15°C° 0 mm 4 mps 649 mmHg 60%
    05:00 +17°C° 0 mm 4 mps 649 mmHg 58%
    06:00 +19°C° 0 mm 4 mps 649 mmHg 56%
    07:00 +20°C° 0 mm 4 mps 649 mmHg 54%
    08:00 +22°C° 0 mm 4 mps 650 mmHg 50%
    09:00 +23°C° 0 mm 4 mps 650 mmHg 47%
    10:00 +26°C° 0 mm 5 mps 650 mmHg 44%
    11:00 +26°C° 0 mm 5 mps 650 mmHg 44%
    12:00 +26°C° 0 mm 5 mps 649 mmHg 45%
    13:00 +27°C° 0 mm 4 mps 649 mmHg 45%
    14:00 +26°C° 0.1 mm 4 mps 649 mmHg 47%
    15:00 +25°C° 0.1 mm 4 mps 648 mmHg 48%
    16:00 +25°C° 0.1 mm 4 mps 648 mmHg 49%
    17:00 +22°C° 0.3 mm 3 mps 648 mmHg 57%
    18:00 +20°C° 0.3 mm 2 mps 647 mmHg 64%
    19:00 +18°C° 0.3 mm 2 mps 647 mmHg 72%
    20:00 +17°C° 0.2 mm 2 mps 647 mmHg 75%
    21:00 +17°C° 0.2 mm 2 mps 647 mmHg 78%
    22:00 +16°C° 0.2 mm 3 mps 647 mmHg 81%
    23:00 +14°C° 0.1 mm 3 mps 647 mmHg 82%

    24 July, Tuesday

    Time Temperature Precipitation Wind Pressure Humidity
    00:00 +14°C° 0.1 mm 3 mps 646 mmHg 82%
    01:00 +15°C° 0.1 mm 2 mps 646 mmHg 83%
    02:00 +14°C° 0 mm 2 mps 646 mmHg 82%
    03:00 +14°C° 0 mm 2 mps 646 mmHg 82%
    04:00 +13°C° 0 mm 2 mps 645 mmHg 82%
    05:00 +14°C° 0 mm 3 mps 646 mmHg 76%
    06:00 +16°C° 0 mm 3 mps 646 mmHg 70%
    07:00 +17°C° 0 mm 3 mps 647 mmHg 65%
    08:00 +19°C° 0 mm 3 mps 647 mmHg 59%
    09:00 +20°C° 0 mm 3 mps 647 mmHg 53%
    10:00 +22°C° 0 mm 3 mps 648 mmHg 47%
    11:00 +22°C° 0 mm 3 mps 648 mmHg 47%
    12:00 +23°C° 0 mm 4 mps 648 mmHg 46%
    13:00 +23°C° 0 mm 4 mps 648 mmHg 46%
    14:00 +23°C° 0.1 mm 4 mps 648 mmHg 49%
    15:00 +23°C° 0.1 mm 4 mps 648 mmHg 52%
    16:00 +22°C° 0.1 mm 4 mps 648 mmHg 55%
    17:00 +21°C° 0.5 mm 4 mps 648 mmHg 62%
    18:00 +19°C° 0.5 mm 4 mps 648 mmHg 70%
    19:00 +17°C° 0.5 mm 3 mps 647 mmHg 77%
    20:00 +17°C° 0.1 mm 3 mps 648 mmHg 79%
    21:00 +16°C° 0.1 mm 3 mps 648 mmHg 82%
    22:00 +14°C° 0.1 mm 3 mps 648 mmHg 84%
    23:00 +15°C° 0 mm 2 mps 648 mmHg 84%

    25 July, Wednesday

    Time Temperature Precipitation Wind Pressure Humidity
    00:00 +15°C° 0 mm 2 mps 648 mmHg 83%
    01:00 +14°C° 0 mm 2 mps 648 mmHg 83%
    02:00 +14°C° 0 mm 2 mps 648 mmHg 82%
    03:00 +14°C° 0 mm 2 mps 648 mmHg 81%
    04:00 +14°C° 0 mm 2 mps 648 mmHg 81%
    05:00 +16°C° 0 mm 2 mps 648 mmHg 76%
    06:00 +17°C° 0 mm 2 mps 649 mmHg 70%
    07:00 +20°C° 0 mm 1 mps 649 mmHg 65%
    08:00 +20°C° 0.1 mm 2 mps 650 mmHg 60%
    09:00 +23°C° 0.1 mm 2 mps 650 mmHg 55%
    10:00 +24°C° 0.1 mm 2 mps 650 mmHg 50%
    11:00 +25°C° 0.3 mm 3 mps 650 mmHg 49%
    12:00 +25°C° 0.3 mm 3 mps 650 mmHg 48%
    13:00 +25°C° 0.3 mm 4 mps 650 mmHg 48%
    14:00 +25°C° 0.7 mm 4 mps 650 mmHg 50%
    15:00 +23°C° 0.7 mm 4 mps 650 mmHg 52%
    16:00 +23°C° 0.7 mm 4 mps 650 mmHg 54%
    17:00 +22°C° 0.5 mm 4 mps 650 mmHg 60%
    18:00 +20°C° 0.5 mm 4 mps 650 mmHg 66%
    19:00 +18°C° 0.5 mm 3 mps 649 mmHg 72%
    20:00 +18°C° 0.1 mm 3 mps 649 mmHg 73%
    21:00 +17°C° 0.1 mm 3 mps 650 mmHg 75%
    22:00 +16°C° 0.1 mm 2 mps 650 mmHg 77%
    23:00 +16°C° 0.1 mm 2 mps 650 mmHg 77%
    Show more